Time,TemperatureF,DewpointF,PressureIn,WindDirection,WindDirectionDegrees,WindSpeedMPH,WindSpeedGustMPH,Humidity,HourlyPrecipIn,Conditions,Clouds,dailyrainin,SoftwareType,DateUTC
2013-09-27 00:13:00,64.0,63.0,29.94,ENE,64,0.0,0.0,97,0.00,,,0.01,,2013-09-27 05:13:00,
2013-09-27 00:23:00,63.0,62.0,29.93,ENE,64,0.0,0.0,98,0.00,,,0.01,,2013-09-27 05:23:00,
2013-09-27 00:43:00,63.0,62.0,29.93,ENE,64,0.0,0.0,98,0.00,,,0.01,,2013-09-27 05:43:00,
2013-09-27 00:52:00,63.0,62.0,29.93,ENE,64,0.0,0.0,98,0.00,,,0.01,,2013-09-27 05:52:00,
2013-09-27 01:12:00,63.0,62.0,29.93,ENE,64,0.0,0.0,98,0.00,,,0.01,,2013-09-27 06:12:00,
2013-09-27 01:22:00,62.0,61.0,29.94,ENE,64,0.0,0.0,98,0.00,,,0.01,,2013-09-27 06:22:00,
2013-09-27 01:43:00,62.0,61.0,29.93,ENE,64,0.0,0.0,98,0.00,,,0.01,,2013-09-27 06:43:00,
2013-09-27 01:52:00,62.0,61.0,29.93,ENE,64,0.0,0.0,98,0.00,,,0.01,,2013-09-27 06:52:00,
2013-09-27 02:12:00,62.0,61.0,29.93,ENE,64,0.0,0.0,98,0.00,,,0.01,,2013-09-27 07:12:00,
2013-09-27 02:22:00,61.0,60.0,29.93,ENE,64,0.0,0.0,98,0.00,,,0.01,,2013-09-27 07:22:00,
2013-09-27 02:32:00,61.0,60.0,29.93,ENE,64,0.0,0.0,98,0.00,,,0.01,,2013-09-27 07:32:00,
2013-09-27 02:44:00,61.0,60.0,29.93,ENE,64,0.0,0.0,98,0.00,,,0.01,,2013-09-27 07:44:00,
2013-09-27 02:53:00,62.0,62.0,29.93,ENE,70,0.0,0.0,99,0.00,,,0.01,,2013-09-27 07:53:00,
2013-09-27 03:12:00,61.0,60.0,29.93,ENE,70,0.0,0.0,98,0.00,,,0.01,,2013-09-27 08:12:00,
2013-09-27 03:22:00,61.0,60.0,29.93,ENE,70,0.0,0.0,98,0.00,,,0.01,,2013-09-27 08:22:00,
2013-09-27 03:42:00,61.0,60.0,29.93,ENE,70,0.0,0.0,98,0.00,,,0.01,,2013-09-27 08:42:00,
2013-09-27 03:52:00,61.0,60.0,29.93,ENE,69,0.0,0.0,98,0.00,,,0.01,,2013-09-27 08:52:00,
2013-09-27 04:12:00,61.0,61.0,29.93,ENE,70,0.0,0.0,99,0.00,,,0.01,,2013-09-27 09:12:00,
2013-09-27 04:22:00,60.0,60.0,29.93,ENE,69,0.0,0.0,99,0.00,,,0.01,,2013-09-27 09:22:00,
2013-09-27 04:44:00,60.0,60.0,29.93,ENE,70,0.0,0.0,99,0.00,,,0.00,,2013-09-27 09:44:00,
2013-09-27 04:53:00,60.0,60.0,29.94,ENE,70,0.0,0.0,99,0.00,,,0.00,,2013-09-27 09:53:00,
2013-09-27 05:13:00,60.0,60.0,29.94,ENE,69,0.0,0.0,99,0.00,,,0.00,,2013-09-27 10:13:00,
2013-09-27 05:23:00,60.0,60.0,29.95,ENE,70,0.0,0.0,99,0.00,,,0.00,,2013-09-27 10:23:00,
2013-09-27 05:42:00,60.0,60.0,29.95,ENE,70,0.0,0.0,99,0.00,,,0.00,,2013-09-27 10:42:00,
2013-09-27 05:52:00,60.0,60.0,29.95,ENE,69,0.0,0.0,99,0.00,,,0.00,,2013-09-27 10:52:00,
2013-09-27 06:12:00,60.0,60.0,29.96,ENE,69,0.0,0.0,99,0.00,,,0.00,,2013-09-27 11:12:00,
2013-09-27 06:22:00,60.0,60.0,29.96,ENE,70,0.0,0.0,99,0.00,,,0.00,,2013-09-27 11:22:00,
2013-09-27 06:43:00,60.0,60.0,29.97,ENE,70,0.0,0.0,99,0.00,,,0.00,,2013-09-27 11:43:00,
2013-09-27 06:52:00,60.0,60.0,29.98,ENE,70,0.0,0.0,99,0.00,,,0.00,,2013-09-27 11:52:00,
2013-09-27 07:12:00,60.0,60.0,29.98,ENE,70,0.0,0.0,99,0.00,,,0.00,,2013-09-27 12:12:00,
2013-09-27 07:21:00,60.0,60.0,29.99,ENE,69,0.0,0.0,99,0.00,,,0.00,,2013-09-27 12:21:00,
2013-09-27 07:42:00,60.0,60.0,29.99,ENE,70,0.0,0.0,99,0.00,,,0.00,,2013-09-27 12:42:00,
2013-09-27 07:52:00,61.0,61.0,30.00,ENE,69,0.0,0.0,99,0.01,,,0.01,,2013-09-27 12:52:00,
2013-09-27 08:11:00,62.0,62.0,30.00,East,84,0.0,1.0,99,0.01,,,0.01,,2013-09-27 13:11:00,
2013-09-27 08:22:00,63.0,63.0,30.01,ENE,78,0.0,2.0,99,0.01,,,0.01,,2013-09-27 13:22:00,
2013-09-27 08:52:00,66.0,65.0,30.02,East,79,0.0,3.0,97,0.00,,,0.01,,2013-09-27 13:52:00,
2013-09-27 09:11:00,68.0,65.0,30.02,East,80,2.0,6.0,91,0.00,,,0.01,,2013-09-27 14:11:00,
2013-09-27 09:22:00,69.0,65.0,30.02,ENE,78,0.0,4.0,88,0.00,,,0.01,,2013-09-27 14:22:00,
2013-09-27 09:52:00,71.0,66.0,30.03,ENE,58,0.0,6.0,83,0.00,,,0.01,,2013-09-27 14:52:00,
2013-09-27 10:11:00,72.0,66.0,30.03,ENE,65,1.0,5.0,81,0.00,,,0.01,,2013-09-27 15:11:00,
2013-09-27 10:22:00,72.0,64.0,30.03,SE,142,2.0,6.0,77,0.00,,,0.01,,2013-09-27 15:22:00,
2013-09-27 10:54:00,74.0,65.0,30.03,ENE,75,1.0,5.0,74,0.00,,,0.01,,2013-09-27 15:54:00,
2013-09-27 11:13:00,75.0,65.0,30.03,East,88,2.0,6.0,70,0.00,,,0.01,,2013-09-27 16:13:00,
2013-09-27 11:24:00,76.0,65.0,30.03,ENE,61,2.0,7.0,69,0.00,,,0.01,,2013-09-27 16:24:00,
2013-09-27 11:53:00,77.0,66.0,30.03,ENE,71,2.0,5.0,70,0.00,,,0.01,,2013-09-27 16:53:00,
2013-09-27 12:13:00,77.0,64.0,30.02,NNW,334,2.0,8.0,64,0.00,,,0.01,,2013-09-27 17:13:00,
2013-09-27 12:23:00,77.0,66.0,30.02,ENE,63,1.0,7.0,68,0.00,,,0.01,,2013-09-27 17:23:00,
2013-09-27 12:43:00,78.0,65.0,30.01,East,98,2.0,6.0,64,0.00,,,0.01,,2013-09-27 17:43:00,
2013-09-27 12:52:00,79.0,64.0,30.01,SE,131,2.0,6.0,61,0.00,,,0.01,,2013-09-27 17:52:00,
2013-09-27 13:13:00,79.0,65.0,30.00,WSW,242,2.0,8.0,63,0.00,,,0.01,,2013-09-27 18:13:00,
2013-09-27 13:22:00,79.0,65.0,29.99,NE,51,1.0,5.0,63,0.00,,,0.01,,2013-09-27 18:22:00,
2013-09-27 13:43:00,79.0,64.0,29.98,ENE,72,1.0,7.0,61,0.00,,,0.01,,2013-09-27 18:43:00,
2013-09-27 13:52:00,79.0,63.0,29.98,SE,135,5.0,7.0,58,0.00,,,0.01,,2013-09-27 18:52:00,
2013-09-27 14:12:00,80.0,63.0,29.97,East,82,2.0,6.0,56,0.00,,,0.01,,2013-09-27 19:12:00,
2013-09-27 14:23:00,80.0,64.0,29.97,ENE,67,3.0,8.0,58,0.00,,,0.01,,2013-09-27 19:23:00,
2013-09-27 14:43:00,80.0,64.0,29.96,ENE,78,1.0,4.0,58,0.00,,,0.01,,2013-09-27 19:43:00,
2013-09-27 14:53:00,81.0,65.0,29.96,SE,136,1.0,5.0,59,0.00,,,0.01,,2013-09-27 19:53:00,
2013-09-27 15:12:00,79.0,65.0,29.96,East,81,1.0,5.0,63,0.00,,,0.01,,2013-09-27 20:12:00,
2013-09-27 15:22:00,79.0,63.0,29.96,NE,44,1.0,5.0,58,0.00,,,0.01,,2013-09-27 20:22:00,
2013-09-27 15:43:00,80.0,63.0,29.96,East,79,3.0,6.0,56,0.00,,,0.01,,2013-09-27 20:43:00,
2013-09-27 15:52:00,80.0,62.0,29.96,East,81,1.0,8.0,55,0.00,,,0.01,,2013-09-27 20:52:00,
2013-09-27 16:12:00,78.0,63.0,29.96,East,98,2.0,6.0,61,0.00,,,0.01,,2013-09-27 21:12:00,
2013-09-27 16:22:00,79.0,64.0,29.95,SE,126,2.0,5.0,60,0.00,,,0.01,,2013-09-27 21:22:00,
2013-09-27 16:44:00,79.0,63.0,29.95,ENE,57,0.0,6.0,58,0.00,,,0.01,,2013-09-27 21:44:00,
2013-09-27 16:54:00,79.0,62.0,29.96,East,90,1.0,5.0,57,0.00,,,0.01,,2013-09-27 21:54:00,
2013-09-27 17:14:00,78.0,63.0,29.96,ENE,74,0.0,5.0,60,0.00,,,0.01,,2013-09-27 22:14:00,
2013-09-27 17:24:00,78.0,63.0,29.96,ENE,61,1.0,5.0,60,0.00,,,0.01,,2013-09-27 22:24:00,
2013-09-27 17:43:00,77.0,63.0,29.96,ENE,65,0.0,4.0,61,0.00,,,0.01,,2013-09-27 22:43:00,
2013-09-27 17:53:00,77.0,64.0,29.96,ENE,72,0.0,3.0,64,0.00,,,0.01,,2013-09-27 22:53:00,
2013-09-27 18:12:00,77.0,65.0,29.97,NE,43,0.0,2.0,66,0.00,,,0.01,,2013-09-27 23:12:00,
2013-09-27 18:22:00,76.0,65.0,29.96,NE,56,0.0,0.0,68,0.00,,,0.01,,2013-09-27 23:22:00,
2013-09-27 18:43:00,75.0,65.0,29.97,NE,55,0.0,0.0,70,0.00,,,0.01,,2013-09-27 23:43:00,
2013-09-27 18:53:00,72.0,64.0,29.97,NE,47,0.0,0.0,76,0.00,,,0.01,,2013-09-27 23:53:00,
2013-09-27 19:12:00,69.0,64.0,29.97,NE,46,0.0,0.0,83,0.00,,,0.01,,2013-09-28 00:12:00,
2013-09-27 19:22:00,68.0,64.0,29.97,NE,47,0.0,0.0,86,0.00,,,0.01,,2013-09-28 00:22:00,
2013-09-27 19:42:00,67.0,63.0,29.97,NE,46,0.0,0.0,88,0.00,,,0.01,,2013-09-28 00:42:00,
2013-09-27 19:52:00,66.0,63.0,29.98,NE,47,0.0,0.0,90,0.00,,,0.01,,2013-09-28 00:52:00,
2013-09-27 20:12:00,65.0,62.0,29.98,NE,47,0.0,0.0,91,0.00,,,0.01,,2013-09-28 01:12:00,
2013-09-27 20:22:00,65.0,63.0,29.99,NE,46,0.0,0.0,92,0.00,,,0.01,,2013-09-28 01:22:00,
2013-09-27 20:42:00,64.0,62.0,29.99,NE,47,0.0,0.0,92,0.00,,,0.01,,2013-09-28 01:42:00,
2013-09-27 20:52:00,64.0,62.0,30.00,NE,47,0.0,0.0,92,0.00,,,0.01,,2013-09-28 01:52:00,
2013-09-27 21:12:00,63.0,61.0,30.01,NE,47,0.0,0.0,93,0.00,,,0.01,,2013-09-28 02:12:00,
2013-09-27 21:22:00,63.0,61.0,30.01,NE,47,0.0,0.0,94,0.00,,,0.01,,2013-09-28 02:22:00,
2013-09-27 21:42:00,63.0,62.0,30.01,NE,47,0.0,0.0,95,0.00,,,0.01,,2013-09-28 02:42:00,
2013-09-27 21:53:00,62.0,61.0,30.01,NE,47,0.0,0.0,95,0.00,,,0.01,,2013-09-28 02:53:00,
2013-09-27 22:12:00,62.0,61.0,30.02,NE,47,0.0,0.0,95,0.00,,,0.01,,2013-09-28 03:12:00,
2013-09-27 22:22:00,62.0,61.0,30.02,NE,49,0.0,0.0,96,0.00,,,0.01,,2013-09-28 03:22:00,
2013-09-27 22:45:00,62.0,61.0,30.02,ENE,72,0.0,1.0,96,0.00,,,0.01,,2013-09-28 03:45:00,
2013-09-27 22:55:00,62.0,61.0,30.03,North,9,0.0,0.0,96,0.00,,,0.01,,2013-09-28 03:55:00,
2013-09-27 23:13:00,62.0,60.0,30.03,North,355,0.0,0.0,94,0.00,,,0.01,,2013-09-28 04:13:00,
2013-09-27 23:25:00,62.0,60.0,30.02,ENE,78,0.0,0.0,94,0.00,,,0.01,,2013-09-28 04:25:00,
2013-09-27 23:43:00,62.0,60.0,30.03,ENE,71,0.0,0.0,93,0.00,,,0.01,,2013-09-28 04:43:00,
2013-09-27 23:54:00,62.0,60.0,30.02,ENE,68,0.0,0.0,92,0.00,,,0.01,,2013-09-28 04:54:00,